Location: Iesi
(43.5167°N, 13.2333°E)
Time: 02:21:14
(UTC+00:00)

USA 32 - Pass Details

Date: 08 August 2020
Orbit: 778 x 782 km, 85.0° (Epoch: 12 September)

Event Time Altitude Azimuth Distance (km) Brightness Sun altitude
Exits shadow 20:53:00 27° 207° (SSW) 1,460 5.2 -22.6°
Maximum altitude 20:55:45 59° 278° (W) 898 4.5 -22.9°
Drops below altitude 10° 21:00:57 10° 358° (N) 2,344 7.3 -23.5°
Sets 21:03:21 0° 2° (N) 3,275 8.1 -23.7°
